CSN8531 ZGGG-ZSCN

Flight info

Callsign CSN8531
Flight time 1h 7m
Altitude 331
Route ZGGG MIKIP1 MIKIP A461 MOLSO DCT OVTIX DCT SEOGA DCT IRNOL DCT OSONO OSO11A ZSCN
Aircraft A306/H-SDE3FGHIRWY/LB1

Departure

Time 2026-04-26 06:46
Airport Guangzhou Baiyun International Airport (ZGGG)

Arrival

Time 2026-04-26 07:53
Airport Nanchang Changbei International Airport (ZSCN)
Time Latitude Longitude Altitude Speed Heading
2026-04-26 05:26 23.40159 113.30222 59 ft 0 kts 193°
2026-04-26 06:20 23.40170 113.30225 59 ft 2 kts 193°
2026-04-26 06:20 23.40185 113.30228 59 ft 2 kts 194°
2026-04-26 06:21 23.40199 113.30232 59 ft 2 kts 193°
2026-04-26 06:21 23.40208 113.30235 59 ft 2 kts 192°
2026-04-26 06:21 23.40223 113.30235 59 ft 2 kts 163°
2026-04-26 06:21 23.40237 113.30228 59 ft 2 kts 141°
2026-04-26 06:22 23.40247 113.30216 59 ft 2 kts 117°
2026-04-26 06:22 23.40250 113.30207 59 ft 1 kts 103°
2026-04-26 06:22 23.40251 113.30204 59 ft 0 kts 104°
2026-04-26 06:28 23.40250 113.30205 59 ft 1 kts 104°
2026-04-26 06:28 23.40244 113.30233 59 ft 6 kts 104°
2026-04-26 06:28 23.40235 113.30301 59 ft 11 kts 84°
2026-04-26 06:29 23.40283 113.30396 59 ft 17 kts 50°
2026-04-26 06:29 23.40346 113.30470 59 ft 9 kts 62°
2026-04-26 06:29 23.40353 113.30547 59 ft 11 kts 103°
2026-04-26 06:29 23.40331 113.30635 59 ft 12 kts 104°
2026-04-26 06:30 23.40307 113.30736 59 ft 13 kts 104°
2026-04-26 06:30 23.40305 113.30746 59 ft 0 kts 104°
2026-04-26 06:32 23.40301 113.30760 59 ft 3 kts 104°
2026-04-26 06:33 23.40293 113.30797 59 ft 6 kts 104°
2026-04-26 06:33 23.40289 113.30815 59 ft 1 kts 104°
2026-04-26 06:33 23.40283 113.30840 59 ft 5 kts 104°
2026-04-26 06:33 23.40271 113.30891 59 ft 7 kts 109°
2026-04-26 06:34 23.40261 113.30903 59 ft 0 kts 160°
2026-04-26 06:35 23.40246 113.30904 59 ft 3 kts 203°
2026-04-26 06:35 23.40230 113.30879 59 ft 5 kts 237°
2026-04-26 06:35 23.40193 113.30843 59 ft 8 kts 210°
2026-04-26 06:36 23.40121 113.30817 59 ft 13 kts 193°
2026-04-26 06:36 23.40032 113.30794 59 ft 13 kts 193°
2026-04-26 06:36 23.39920 113.30765 59 ft 18 kts 192°
2026-04-26 06:36 23.39794 113.30729 59 ft 19 kts 192°
2026-04-26 06:37 23.39649 113.30691 59 ft 23 kts 194°
2026-04-26 06:37 23.39472 113.30643 59 ft 28 kts 195°
2026-04-26 06:37 23.39267 113.30588 59 ft 32 kts 193°
2026-04-26 06:37 23.39035 113.30525 59 ft 36 kts 195°
2026-04-26 06:38 23.38810 113.30463 59 ft 29 kts 194°
2026-04-26 06:38 23.38623 113.30413 59 ft 29 kts 195°
2026-04-26 06:38 23.38422 113.30359 59 ft 30 kts 194°
2026-04-26 06:38 23.38208 113.30301 59 ft 31 kts 194°
2026-04-26 06:39 23.37989 113.30242 59 ft 32 kts 194°
2026-04-26 06:39 23.37816 113.30195 59 ft 16 kts 194°
2026-04-26 06:39 23.37728 113.30202 59 ft 10 kts 156°
2026-04-26 06:39 23.37681 113.30225 59 ft 2 kts 155°
2026-04-26 06:40 23.37668 113.30232 59 ft 2 kts 149°
2026-04-26 06:40 23.37656 113.30243 59 ft 2 kts 134°
2026-04-26 06:40 23.37637 113.30276 59 ft 7 kts 115°
2026-04-26 06:40 23.37617 113.30353 59 ft 13 kts 103°
2026-04-26 06:41 23.37612 113.30373 59 ft 2 kts 103°
2026-04-26 06:41 23.37602 113.30418 59 ft 9 kts 103°
2026-04-26 06:41 23.37586 113.30489 59 ft 6 kts 103°
2026-04-26 06:41 23.37605 113.30542 59 ft 11 kts 21°
2026-04-26 06:42 23.37648 113.30553 59 ft 0 kts 13°
2026-04-26 06:45 23.37661 113.30557 59 ft 10 kts 13°
2026-04-26 06:45 23.37923 113.30628 59 ft 75 kts 14°
2026-04-26 06:45 23.38693 113.30836 60 ft 149 kts 14°
2026-04-26 06:45 23.39875 113.31152 322 ft 192 kts 15°
2026-04-26 06:46 23.41171 113.31509 1049 ft 198 kts 17°
2026-04-26 06:46 23.42546 113.31956 1696 ft 213 kts 17°
2026-04-26 06:46 23.43984 113.32412 2431 ft 221 kts 17°
2026-04-26 06:46 23.45518 113.32879 2975 ft 244 kts 17°
2026-04-26 06:47 23.47219 113.33383 3554 ft 258 kts 16°
2026-04-26 06:47 23.48945 113.33890 3828 ft 252 kts 15°
2026-04-26 06:47 23.50652 113.34384 3882 ft 254 kts 15°
2026-04-26 06:47 23.52344 113.34873 3877 ft 249 kts 16°
2026-04-26 06:48 23.54040 113.35361 3874 ft 249 kts 15°
2026-04-26 06:48 23.55758 113.35781 4080 ft 260 kts 12°
2026-04-26 06:48 23.57542 113.36151 4982 ft 265 kts 11°
2026-04-26 06:48 23.59317 113.36504 6140 ft 260 kts 11°
2026-04-26 06:49 23.61066 113.36875 7155 ft 258 kts 16°
2026-04-26 06:49 23.62596 113.37916 7771 ft 274 kts 49°
2026-04-26 06:49 23.63474 113.39787 8439 ft 287 kts 71°
2026-04-26 06:49 23.64003 113.41927 9201 ft 296 kts 75°
2026-04-26 06:50 23.64486 113.44112 10014 ft 302 kts 75°
2026-04-26 06:50 23.64976 113.46347 10646 ft 313 kts 75°
2026-04-26 06:50 23.65494 113.48716 11079 ft 331 kts 75°
2026-04-26 06:50 23.66034 113.51234 11433 ft 351 kts 76°
2026-04-26 06:51 23.66605 113.53915 11775 ft 372 kts 76°
2026-04-26 06:51 23.67797 113.59557 13101 ft 390 kts 76°
2026-04-26 06:51 23.68402 113.62439 13975 ft 392 kts 76°
2026-04-26 06:52 23.69011 113.65342 14783 ft 395 kts 77°
2026-04-26 06:52 23.69623 113.68247 15503 ft 399 kts 77°
2026-04-26 06:52 23.70243 113.71197 16144 ft 405 kts 77°
2026-04-26 06:52 23.70877 113.74226 16793 ft 410 kts 77°
2026-04-26 06:53 23.71510 113.77246 17443 ft 415 kts 77°
2026-04-26 06:53 23.72155 113.80331 18117 ft 418 kts 77°
2026-04-26 06:53 23.72796 113.83419 18709 ft 423 kts 77°
2026-04-26 06:53 23.73455 113.86588 19338 ft 427 kts 76°
2026-04-26 06:54 23.74109 113.89733 19718 ft 433 kts 77°
2026-04-26 06:54 23.74785 113.92973 19813 ft 434 kts 76°
2026-04-26 06:54 23.75453 113.96162 19821 ft 431 kts 76°
2026-04-26 06:54 23.76119 113.99348 19834 ft 433 kts 76°
2026-04-26 06:55 23.76784 114.02548 19845 ft 432 kts 76°
2026-04-26 06:55 23.77447 114.05740 20018 ft 439 kts 76°
2026-04-26 06:55 23.78128 114.09023 20556 ft 444 kts 76°
2026-04-26 06:55 23.78802 114.12295 21266 ft 445 kts 76°
2026-04-26 06:56 23.79475 114.15563 21967 ft 446 kts 76°
2026-04-26 06:56 23.80158 114.18871 22586 ft 449 kts 76°
2026-04-26 06:56 23.80845 114.22208 23075 ft 455 kts 76°
2026-04-26 06:56 23.81562 114.25601 23590 ft 459 kts 73°
2026-04-26 06:57 23.82864 114.28762 24016 ft 460 kts 53°
2026-04-26 06:57 23.85054 114.31258 24501 ft 457 kts 36°
2026-04-26 06:57 23.87661 114.33241 25148 ft 456 kts 30°
2026-04-26 06:57 23.90328 114.35154 25795 ft 457 kts 31°
2026-04-26 06:58 23.92937 114.37135 26373 ft 460 kts 32°
2026-04-26 06:58 23.95521 114.39211 26901 ft 464 kts 33°
2026-04-26 06:58 23.98103 114.41336 27436 ft 467 kts 34°
2026-04-26 06:58 24.00701 114.43488 28028 ft 468 kts 34°
2026-04-26 06:59 24.03266 114.45601 28724 ft 465 kts 33°
2026-04-26 06:59 24.05875 114.47743 29441 ft 462 kts 33°
2026-04-26 06:59 24.08416 114.49830 30043 ft 462 kts 32°
2026-04-26 06:59 24.11000 114.51952 30621 ft 462 kts 32°
2026-04-26 07:00 24.13571 114.54063 31252 ft 461 kts 32°
2026-04-26 07:00 24.16144 114.56178 31924 ft 458 kts 32°
2026-04-26 07:00 24.18651 114.58243 32581 ft 455 kts 32°
2026-04-26 07:00 24.21195 114.60336 33129 ft 453 kts 31°
2026-04-26 07:01 24.23713 114.62408 33312 ft 455 kts 31°
2026-04-26 07:01 24.26247 114.64490 33324 ft 450 kts 31°
2026-04-26 07:01 24.31218 114.68578 33324 ft 445 kts 31°
2026-04-26 07:02 24.36219 114.72694 33328 ft 448 kts 32°
2026-04-26 07:02 24.41193 114.76807 33346 ft 446 kts 31°
2026-04-26 07:03 24.46181 114.80924 33343 ft 445 kts 31°
2026-04-26 07:03 24.51112 114.85007 33353 ft 448 kts 31°
2026-04-26 07:04 24.56115 114.89152 33346 ft 445 kts 31°
2026-04-26 07:04 24.61165 114.93115 33332 ft 437 kts 20°
2026-04-26 07:05 24.64039 114.94173 33376 ft 427 kts
2026-04-26 07:05 24.66925 114.94768 33338 ft 428 kts
2026-04-26 07:05 24.72793 114.95991 33340 ft 424 kts
2026-04-26 07:06 24.78589 114.97414 33339 ft 427 kts
2026-04-26 07:06 24.84393 114.98840 33345 ft 426 kts
2026-04-26 07:07 24.90159 115.00242 33346 ft 425 kts
2026-04-26 07:07 24.95950 115.01650 33347 ft 426 kts
2026-04-26 07:08 25.01735 115.03059 33350 ft 427 kts
2026-04-26 07:08 25.07519 115.04477 33338 ft 423 kts
2026-04-26 07:09 25.13303 115.05884 33342 ft 424 kts
2026-04-26 07:09 25.19085 115.07305 33336 ft 424 kts
2026-04-26 07:11 25.33426 115.10770 33319 ft 416 kts
2026-04-26 07:11 25.36270 115.10600 33336 ft 404 kts 342°
2026-04-26 07:11 25.38843 115.09465 33367 ft 401 kts 330°
2026-04-26 07:12 25.43801 115.06622 33308 ft 398 kts 331°
2026-04-26 07:12 25.48819 115.03992 33301 ft 402 kts 332°
2026-04-26 07:13 25.53895 115.01402 33298 ft 401 kts 332°
2026-04-26 07:13 25.58961 114.98796 33310 ft 400 kts 332°
2026-04-26 07:14 25.64043 114.96177 33312 ft 401 kts 332°
2026-04-26 07:14 25.69066 114.93595 33315 ft 401 kts 332°
2026-04-26 07:15 25.74163 114.90964 33320 ft 400 kts 332°
2026-04-26 07:15 25.79237 114.88457 33287 ft 404 kts 340°
2026-04-26 07:15 25.82044 114.88159 33307 ft 414 kts
2026-04-26 07:16 25.84929 114.88886 33332 ft 427 kts 12°
2026-04-26 07:16 25.90506 114.91228 33305 ft 427 kts 14°
2026-04-26 07:17 25.96094 114.93511 33298 ft 427 kts 13°
2026-04-26 07:17 26.01675 114.95700 33293 ft 425 kts 13°
2026-04-26 07:18 26.07268 114.97897 33288 ft 425 kts 13°
2026-04-26 07:18 26.12844 115.00101 33290 ft 426 kts 13°
2026-04-26 07:19 26.18433 115.02306 33283 ft 425 kts 13°
2026-04-26 07:19 26.23990 115.04504 33278 ft 425 kts 12°
2026-04-26 07:20 26.29560 115.06706 33274 ft 421 kts 13°
2026-04-26 07:20 26.35096 115.08905 33295 ft 425 kts 13°
2026-04-26 07:21 26.40689 115.11121 33301 ft 423 kts 12°
2026-04-26 07:21 26.46217 115.13316 33304 ft 424 kts 12°
2026-04-26 07:22 26.51805 115.15539 33307 ft 425 kts 12°
2026-04-26 07:22 26.57368 115.17754 33308 ft 423 kts 12°
2026-04-26 07:23 26.62968 115.19978 33303 ft 425 kts 12°
2026-04-26 07:23 26.68512 115.22195 33292 ft 424 kts 12°
2026-04-26 07:24 26.74090 115.24418 33289 ft 423 kts 12°
2026-04-26 07:24 26.79642 115.26636 33285 ft 424 kts 12°
2026-04-26 07:25 26.85164 115.28851 33286 ft 424 kts 12°
2026-04-26 07:25 26.90749 115.31072 33289 ft 423 kts 12°
2026-04-26 07:26 26.96263 115.33263 33285 ft 423 kts 12°
2026-04-26 07:26 27.01818 115.35481 33287 ft 425 kts 12°
2026-04-26 07:27 27.07463 115.37726 33281 ft 435 kts 12°
2026-04-26 07:27 27.13185 115.40021 33197 ft 434 kts 12°
2026-04-26 07:27 27.16074 115.41177 33092 ft 434 kts 12°
2026-04-26 07:28 27.18908 115.42310 33091 ft 432 kts 12°
2026-04-26 07:28 27.24633 115.44607 33090 ft 436 kts 12°
2026-04-26 07:29 27.30404 115.46917 33087 ft 437 kts 12°
2026-04-26 07:29 27.36076 115.49195 33082 ft 434 kts 12°
2026-04-26 07:30 27.40934 115.51144 33084 ft 435 kts 12°
2026-04-26 07:30 27.46611 115.53423 33083 ft 435 kts 12°
2026-04-26 07:31 27.52341 115.55738 33083 ft 433 kts 12°
2026-04-26 07:31 27.58027 115.58031 33087 ft 436 kts 12°
2026-04-26 07:32 27.63751 115.60337 33090 ft 435 kts 12°
2026-04-26 07:32 27.69452 115.62637 33097 ft 433 kts 12°
2026-04-26 07:33 27.75114 115.64928 33101 ft 432 kts 12°
2026-04-26 07:33 27.80829 115.67224 33079 ft 434 kts 12°
2026-04-26 07:33 27.83661 115.68354 32935 ft 428 kts 12°
2026-04-26 07:34 27.86429 115.69466 32626 ft 419 kts 12°
2026-04-26 07:34 27.89164 115.70565 31946 ft 412 kts 12°
2026-04-26 07:34 27.91819 115.71626 31042 ft 405 kts 12°
2026-04-26 07:34 27.94509 115.72674 29864 ft 401 kts 10°
2026-04-26 07:35 27.97171 115.73047 28550 ft 388 kts 350°
2026-04-26 07:35 27.99746 115.72400 27252 ft 381 kts 338°
2026-04-26 07:35 28.01414 115.71732 26394 ft 380 kts 336°
2026-04-26 07:36 28.12153 115.67617 21635 ft 361 kts 338°
2026-04-26 07:36 28.14523 115.66756 20603 ft 357 kts 338°
2026-04-26 07:37 28.16859 115.65901 19482 ft 356 kts 338°
2026-04-26 07:37 28.19214 115.65041 18508 ft 350 kts 339°
2026-04-26 07:37 28.21470 115.64224 17670 ft 342 kts 339°
2026-04-26 07:37 28.23659 115.63431 17338 ft 320 kts 338°
2026-04-26 07:38 28.25747 115.62672 16688 ft 312 kts 338°
2026-04-26 07:38 28.27812 115.61914 15780 ft 314 kts 339°
2026-04-26 07:38 28.29885 115.61150 14930 ft 312 kts 339°
2026-04-26 07:38 28.31921 115.60403 14311 ft 303 kts 340°
2026-04-26 07:39 28.33897 115.59686 13992 ft 285 kts 340°
2026-04-26 07:39 28.35753 115.59013 13797 ft 287 kts 340°
2026-04-26 07:39 28.37775 115.58450 13538 ft 308 kts 355°
2026-04-26 07:39 28.39892 115.58945 13316 ft 312 kts 20°
2026-04-26 07:40 28.41800 115.60103 13090 ft 312 kts 27°
2026-04-26 07:40 28.43663 115.61379 12950 ft 313 kts 28°
2026-04-26 07:40 28.45535 115.62656 12887 ft 314 kts 27°
2026-04-26 07:40 28.47430 115.63927 12849 ft 314 kts 27°
2026-04-26 07:41 28.49336 115.65198 12813 ft 315 kts 27°
2026-04-26 07:41 28.51211 115.66441 12777 ft 313 kts 27°
2026-04-26 07:41 28.53120 115.67700 12764 ft 314 kts 27°
2026-04-26 07:41 28.54990 115.68938 12774 ft 314 kts 27°
2026-04-26 07:42 28.56912 115.70166 12582 ft 317 kts 25°
2026-04-26 07:42 28.58887 115.71342 12180 ft 317 kts 24°
2026-04-26 07:42 28.60823 115.72488 11479 ft 311 kts 25°
2026-04-26 07:42 28.62718 115.73614 10726 ft 307 kts 25°
2026-04-26 07:43 28.64583 115.74737 10185 ft 295 kts 25°
2026-04-26 07:43 28.66363 115.75816 9749 ft 283 kts 26°
2026-04-26 07:43 28.68078 115.76850 9148 ft 278 kts 26°
2026-04-26 07:43 28.69757 115.77873 8747 ft 266 kts 26°
2026-04-26 07:44 28.71353 115.78848 8445 ft 252 kts 26°
2026-04-26 07:44 28.72896 115.79787 8213 ft 264 kts 26°
2026-04-26 07:44 28.74604 115.80818 7899 ft 285 kts 26°
2026-04-26 07:44 28.76362 115.81889 7604 ft 283 kts 26°
2026-04-26 07:45 28.78092 115.82941 7262 ft 279 kts 26°
2026-04-26 07:45 28.79776 115.83968 6935 ft 274 kts 26°
2026-04-26 07:45 28.81448 115.84985 6606 ft 270 kts 26°
2026-04-26 07:45 28.83095 115.85986 6279 ft 266 kts 26°
2026-04-26 07:46 28.84731 115.86982 5957 ft 262 kts 26°
2026-04-26 07:46 28.86329 115.87952 5667 ft 257 kts 26°
2026-04-26 07:46 28.87885 115.88896 5419 ft 250 kts 26°
2026-04-26 07:46 28.89395 115.89811 5165 ft 245 kts 26°
2026-04-26 07:47 28.90885 115.90718 4911 ft 240 kts 26°
2026-04-26 07:47 28.92360 115.91612 4655 ft 235 kts 26°
2026-04-26 07:47 28.93825 115.92501 3988 ft 246 kts 27°
2026-04-26 07:47 28.95360 115.93430 3284 ft 252 kts 28°
2026-04-26 07:48 28.96903 115.94363 2769 ft 249 kts 28°
2026-04-26 07:48 28.98401 115.95276 2475 ft 237 kts 28°
2026-04-26 07:48 28.99742 115.96275 2235 ft 221 kts 53°
2026-04-26 07:48 29.00258 115.97787 2247 ft 207 kts 93°
2026-04-26 07:49 28.99747 115.99351 2226 ft 217 kts 134°
2026-04-26 07:49 28.98486 116.00111 2240 ft 202 kts 172°
2026-04-26 07:49 28.97201 115.99727 2131 ft 185 kts 217°
2026-04-26 07:50 28.95862 115.97412 2070 ft 176 kts 231°
2026-04-26 07:50 28.95169 115.96295 2062 ft 163 kts 234°
2026-04-26 07:50 28.94479 115.95353 1972 ft 144 kts 224°
2026-04-26 07:50 28.93765 115.94621 1916 ft 144 kts 217°
2026-04-26 07:51 28.92846 115.93862 1482 ft 174 kts 212°
2026-04-26 07:51 28.91811 115.93169 1069 ft 171 kts 207°
2026-04-26 07:51 28.90836 115.92453 773 ft 155 kts 215°
2026-04-26 07:51 28.89912 115.91924 583 ft 143 kts 201°
2026-04-26 07:52 28.88969 115.91455 416 ft 153 kts 202°
2026-04-26 07:52 28.87986 115.90978 202 ft 149 kts 201°
2026-04-26 07:52 28.87076 115.90550 158 ft 132 kts 203°
2026-04-26 07:52 28.86271 115.90163 158 ft 114 kts 205°
2026-04-26 07:53 28.85744 115.89902 159 ft 45 kts 204°
2026-04-26 07:53 28.85531 115.89806 159 ft 17 kts 185°
2026-04-26 07:53 28.85488 115.89814 159 ft 6 kts 152°
2026-04-26 07:53 28.85455 115.89861 159 ft 8 kts 105°
2026-04-26 07:54 28.85461 115.89938 159 ft 11 kts 82°
2026-04-26 07:54 28.85522 115.89996 159 ft 13 kts 29°
2026-04-26 07:54 28.85608 115.90050 158 ft 15 kts 26°
2026-04-26 07:54 28.85713 115.90100 158 ft 17 kts 23°
2026-04-26 07:55 28.85833 115.90158 158 ft 19 kts 23°
2026-04-26 07:55 28.85966 115.90223 158 ft 21 kts 24°
2026-04-26 07:55 28.86110 115.90292 158 ft 16 kts 24°
2026-04-26 07:55 28.86214 115.90344 158 ft 17 kts 23°
2026-04-26 07:56 28.86334 115.90402 158 ft 19 kts 23°
2026-04-26 07:56 28.86401 115.90444 158 ft 8 kts 58°
2026-04-26 07:56 28.86386 115.90520 158 ft 10 kts 114°
2026-04-26 07:56 28.86353 115.90608 158 ft 13 kts 115°
2026-04-26 07:57 28.86314 115.90713 158 ft 15 kts 113°
2026-04-26 07:57 28.86297 115.90790 158 ft 10 kts 79°
2026-04-26 07:57 28.86337 115.90866 158 ft 12 kts 43°
2026-04-26 07:57 28.86414 115.90884 158 ft 10 kts 355°
2026-04-26 07:58 28.86478 115.90879 158 ft 4 kts
2026-04-26 07:58 28.86498 115.90910 158 ft 6 kts 84°
2026-04-26 07:58 28.86499 115.90928 158 ft 1 kts 87°
2026-04-26 07:58 28.86499 115.90938 158 ft 1 kts 86°
2026-04-26 07:59 28.86499 115.90941 158 ft 0 kts 86°
2026-04-26 07:59 28.86500 115.90942 158 ft 0 kts 86°